Simultaneous Nadir Overpasses (SNOs) Predictions

Prediction of SNOs between AURA and NPP Satellite Orbit:

Table of predicted SNOs for the next 14.0 days since TLE Epoch: 11/24/2012
Index Date (AURA) Time (AURA) AURA Lat,Lon Date (NPP) Time (NPP) NPP Lat,Lon Distance(km) Time Diff (sec)
1 11/26/2012 20:47:06 79.84, 127.42 11/26/2012 20:47:02 79.85, 127.53 2.25 4
2 11/26/2012 21:36:29 -79.98, -63.79 11/26/2012 21:37:43 -79.98, -63.87 1.69 74
3 11/29/2012 12:14:14 -79.65, 74.22 11/29/2012 12:13:18 -79.64, 74.15 1.47 56
4 11/29/2012 13:03:33 79.90,-116.22 11/29/2012 13:03:54 79.91,-116.11 2.23 21
5 12/02/2012 04:30:41 -79.71,-169.44 12/02/2012 04:30:11 -79.70,-169.57 2.80 30
6 12/02/2012 05:20:00 79.96, 0.12 12/02/2012 05:20:47 79.96, 0.19 1.39 47
7 12/04/2012 20:47:05
